CW5229 Weather Reports


Display with metric or nautical units.
time (UTC)temp
F
wind
direction
speed
MPH
gust
MPH
rain 1hr
in
rain 24hr
in
rain mn
in
humidity
%
barometer
mb
20260502233048 54 251 0.0 2.0 0.00 0.00 0.00 45 1016.1
20260502231546 54 287 1.0 3.0 0.00 0.00 0.00 43 1016.2
20260502230045 54 200 1.0 7.0 0.00 0.00 0.00 43 1016.4
20260502224514 55 317 0.0 6.0 0.00 0.00 0.00 43 1016.3
20260502223014 55 314 1.0 4.0 0.00 0.00 0.00 43 1016.4
20260502221513 55 330 0.0 5.0 0.00 0.00 0.00 40 1016.4
20260502220021 55 203 2.0 11.0 0.00 0.00 0.00 40 1016.3
20260502214510 56 266 0.0 4.0 0.00 0.00 0.00 39 1016.5
20260502213025 55 58 2.0 7.0 0.00 0.00 0.00 39 1016.5
20260502211507 54 315 0.0 2.0 0.00 0.00 0.00 41 1016.7
20260502210008 54 326 1.0 6.0 0.00 0.00 0.00 42 1016.7
20260502204505 55 292 0.0 4.0 0.00 0.00 0.00 40 1016.9
20260502203003 56 142 1.0 4.0 0.00 0.00 0.00 39 1017.0
20260502201600 56 229 2.0 7.0 0.00 0.00 0.00 38 1017.2
20260502200058 55 7 2.0 7.0 0.00 0.00 0.00 39 1017.5
20260502194559 56 260 0.0 6.0 0.00 0.00 0.00 39 1017.5
20260502193056 56 278 1.0 7.0 0.00 0.00 0.00 39 1017.8
20260502191654 56 50 3.0 8.0 0.00 0.00 0.00 39 1017.9
20260502190104 57 291 1.0 6.0 0.00 0.00 0.00 40 1018.1
20260502184547 56 231 2.0 9.0 0.00 0.00 0.00 40 1018.3
20260502183056 55 295 1.0 6.0 0.00 0.00 0.00 41 1018.4
20260502181541 55 299 3.0 7.0 0.00 0.00 0.00 40 1018.5
20260502163105 51 272 2.0 7.0 0.00 0.00 0.00 44 1019.4
20260502161547 50 61 1.0 6.0 0.00 0.00 0.00 45 1019.7
20260502151539 50 311 1.0 6.0 0.00 0.00 0.00 48 1019.8
20260502123057 38 319 0.0 0.0 0.00 0.00 0.00 87 1019.7
20260502121547 36 319 0.0 1.0 0.00 0.00 0.00 89 1019.6
20260502114547 33 8 0.0 0.0 0.00 0.00 0.00 91 1019.3
20260502113040 29 9 0.0 0.0 0.00 0.00 0.00 92 1019.1
20260502111544 26 9 0.0 0.0 0.00 0.00 0.00 91 1019.2
20260502110035 26 9 0.0 0.0 0.00 0.00 0.00 90 1019.0
20260502104533 27 9 0.0 0.0 0.00 0.01 0.00 90 1018.9
20260502103032 27 9 0.0 0.0 0.00 0.01 0.00 90 1018.9
20260502101531 28 9 0.0 0.0 0.00 0.01 0.00 90 1018.9
20260502091528 28 9 0.0 0.0 0.00 0.01 0.00 90 1018.8
20260502070050 30 9 0.0 0.0 0.00 0.01 0.00 88 1018.8
20260502064545 30 9 0.0 0.0 0.00 0.06 0.00 87 1018.9
20260502063039 31 9 0.0 0.0 0.00 0.06 0.00 87 1019.0
20260502061533 31 9 0.0 0.0 0.00 0.06 0.00 87 1019.0
20260502060031 31 9 0.0 0.0 0.00 0.06 0.00 87 1019.1
20260502054530 31 9 0.0 0.0 0.00 0.07 0.00 86 1019.1
20260502053027 32 9 0.0 0.0 0.00 0.07 0.00 87 1019.2
20260502051529 31 9 0.0 0.0 0.00 0.07 0.00 86 1019.2
20260502050029 31 9 0.0 0.0 0.00 0.07 0.00 85 1019.2
20260502044520 32 9 0.0 0.0 0.00 0.08 0.00 84 1019.2
20260502043055 33 9 0.0 0.0 0.00 0.08 0.00 84 1019.2
20260502041549 33 9 0.0 0.0 0.00 0.08 0.00 83 1019.2
20260502040016 34 9 0.0 0.0 0.00 0.08 0.00 82 1019.2
20260502034511 35 9 0.0 0.0 0.00 0.09 0.00 82 1019.1
20260502033012 35 9 0.0 0.0 0.00 0.09 0.00 81 1019.0
20260502031503 35 9 0.0 0.0 0.00 0.09 0.00 80 1018.9
20260502030108 35 9 0.0 0.0 0.00 0.09 0.00 78 1018.8
20260502024558 36 9 0.0 0.0 0.00 0.15 0.00 77 1018.7
20260502023053 37 9 0.0 0.0 0.00 0.15 0.00 76 1018.7
20260502021550 37 6 0.0 0.0 0.00 0.15 0.00 77 1018.6
20260502020047 38 6 0.0 0.0 0.00 0.15 0.00 76 1018.4
20260502014553 38 18 0.0 3.0 0.00 0.15 0.00 75 1018.1
20260502013039 39 34 0.0 3.0 0.00 0.15 0.00 75 1017.9
20260502011545 39 44 0.0 3.0 0.00 0.15 0.00 74 1017.8
20260502010035 39 75 1.0 6.0 0.00 0.15 0.00 73 1017.5
20260502004533 40 84 1.0 5.0 0.00 0.15 0.00 73 1017.5
20260502003028 41 17 1.0 6.0 0.00 0.15 0.00 71 1017.3
20260502001557 42 51 1.0 5.0 0.00 0.15 0.00 69 1017.1
20260502000105 42 53 3.0 7.0 0.00 0.15 0.00 67 1017.1
20260501234521 43 62 2.0 8.0 0.00 0.16 0.00 69 1017.2